Back to catalog

SHIYAN 24C 03

AliveScienceSSO
NORAD 58652·PAYLOAD·🇨🇳 China

Launched Dec 25, 2023 from South China Sea Launch Area

Loading…

Next Passes (next 24 hours)

TLE

StaleSource: Space-Track

Epoch: Jun 17, 2026, 14:48 UTC

1 58652U 23206C   26168.61686718  .00001145  00000-0  10098-3 0  9997
2 58652  97.4058 136.3426 0002551  71.8845 288.2656 14.98238781135368

Track SHIYAN 24C 03 in real time with AllMySat

Download on the App Store